Regional Weather Roundup
Issued by NWS

Home | Current Version | Previous Version | Text Only | Print | Product List | Glossary Off
Versions: 1 2 3 4 5 6 7 8 9 10 11 12 13 14 15 16 17 18 19 20 21 22 23 24 25 26 27 28 29 30 31 32 33 34 35 36 37 38 39 40 41 42 43 44 45 46 47 48 49 50

730
ASUS43 KLMK 261302
RWRKY
KENTUCKY REGIONAL WEATHER ROUNDUP
NATIONAL WEATHER SERVICE LOUISVILLE KY
900 AM EDT THU APR 26 2018

NOTE "FAIR" INDICATES FEW OR NO CLOUDS BELOW 12,000 FEET
WITH NO SIGNIFICANT WEATHER AND/OR OBSTRUCTIONS TO VISIBILITY.

KYZ001>023-026-027-061>063-070>075-261400-
WESTERN AND SOUTH CENTRAL KENTUCKY

CITY           SKY/WX    TMP DP  RH WIND       PRES   REMARKS
PADUCAH        CLOUDY    55  48  77 NE8       29.88R
HENDERSON      PTSUNNY   54  38  54 NE8       29.93S
OWENSBORO      FAIR      54  38  54 N7        29.92S
HOPKINSVILLE   DRIZZLE   55  54  94 NE3       29.88R
BOWLING GREEN  FAIR      56  49  77 NE8       29.90R
GLASGOW        NOT AVBL
$$

KYZ024-025-028>034-038-045-046-053-261400-
NORTH CENTRAL KENTUCKY

CITY           SKY/WX    TMP DP  RH WIND       PRES   REMARKS
LOUISVILLE/SDF CLOUDY    51  35  54 N6        29.93R
LOUISVILLE/LOU FAIR      51  37  58 CALM      29.94R
FORT KNOX      CLOUDY    50  37  60 N6        29.93R
$$

KYZ035>037-039>044-047>052-055>060-089>105-261400-
NORTHEAST KENTUCKY

CITY           SKY/WX    TMP DP  RH WIND       PRES   REMARKS
LEXINGTON      PTSUNNY   51  41  68 CALM      29.92R
COVINGTON      FAIR      48  34  58 N5        29.91R
FRANKFORT      FAIR      52  37  56 CALM      29.91R
$$

KYZ054-064>069-076>088-106>120-261400-
SOUTHEAST KENTUCKY

CITY           SKY/WX    TMP DP  RH WIND       PRES   REMARKS
JACKSON        PTSUNNY   51  50  96 CALM      29.92R FOG
LONDON         FAIR      50  49  96 CALM      29.92R
SOMERSET       NOT AVBL
MIDDLESBORO    CLOUDY    49  49 100 CALM      29.94R
MONTICELLO     NOT AVBL
$$





USA.gov is the U.S. government's official web portal to all federal, state and local government web resources and services.